Flag for Germany Weather past 2 weeks in Hagen, North Rhine-Westphalia, Germany

50 °F


Feels Like: 46 °F
Forecast: 35 / 51 °F
Wind: 12 mph from Northeast

Location: Dortmund / Wickede

Current Time: Oct 10, 2015 at 11:56:46 AM

Latest Report: Oct 10, 2015 at 11:20 AM

Visibility: 2 mi

Pressure: 30.15 "Hg

Humidity: 82%

Dew point: 45 °F

Location of HagenLocation

Historic Weather in Hagen — Graph


Hagen temperature yesterday

Maximum temperature yesterday: 55 °F (at 12:20 PM)
Minimum temperature yesterday: 52 °F (at 5:20 AM)
Average temperature yesterday: 54 °F

Past Weeks' High & Low Weather Summary

High68 °F (Oct 3, 2:50 PM)94% (Sep 26, 5:20 AM)30.66 "Hg (Sep 26, 5:20 AM)
Low36 °F (Oct 2, 6:20 AM)39% (Sep 30, 4:20 PM)29.59 "Hg (Oct 6, 6:20 AM)
Average55 °F73%30.20 "Hg
* Reported Sep 25 10:20 AM — Oct 10 10:50 AM, Hagen, Weather by CustomWeather, © 2015

Note: Actual official high and low records may vary slightly from our data, if they occured in-between our weather recording intervals... More about our weather records


Hagen weather history for previous 24 hours

Time TempWeatherWind HumidityBarometerVisibility
10:50 AM
Sat, Oct 10
50 °FFog.8 mph82%30.15 "Hg3 mi
10:20 AM48 °FFog.8 mph87%30.15 "Hg3 mi
9:50 AM48 °FFog.7 mph87%30.15 "Hg2 mi
9:20 AM48 °FFog.9 mph87%30.15 "Hg2 mi
8:50 AM48 °FLow clouds.8 mph87%30.15 "Hg4 mi
8:20 AM48 °FFog.7 mph87%30.15 "Hg3 mi
7:50 AM48 °FLow clouds.7 mph87%30.15 "Hg4 mi
7:20 AM48 °FLow clouds.10 mph87%30.15 "Hg4 mi
6:50 AM50 °FFog.8 mph88%30.15 "Hg2 mi
6:20 AM50 °FFog.8 mph88%30.15 "Hg3 mi
5:50 AM50 °FLow clouds.8 mph88%30.15 "Hg4 mi
5:20 AM50 °FFog.8 mph88%30.15 "Hg2 mi
10:50 PM
Fri, Oct 9
54 °FPassing clouds.7 mph88%30.18 "Hg4 mi
10:20 PM54 °FPassing clouds.6 mph94%30.18 "Hg4 mi
9:50 PM54 °FFog.3 mph94%30.18 "Hg3 mi
9:20 PM54 °FLight rain. Passing clouds.5 mph94%30.15 "Hg4 mi
8:50 PM54 °FRain. Fog.7 mph94%30.15 "Hg2 mi
8:20 PM54 °FPartly cloudy.2 mph94%30.15 "Hg4 mi
7:50 PM55 °FPassing clouds.3 mph88%30.15 "Hg4 mi
7:20 PM55 °FPartly sunny.2 mph88%30.15 "HgN/A
6:50 PM54 °FLight rain. Partly sunny.2 mph94%30.15 "Hg6 mi
6:20 PM55 °FSprinkles. Partly sunny.5 mph88%30.15 "Hg4 mi
5:50 PM55 °FSprinkles. Partly sunny.3 mph88%30.15 "Hg4 mi
5:20 PM55 °FScattered showers. Partly sunny.3 mph88%30.15 "Hg5 mi
4:20 PM55 °FPartly sunny.3 mph88%30.15 "HgN/A
3:50 PM55 °FPartly sunny.3 mph88%30.15 "Hg4 mi
3:20 PM55 °FFog.5 mph88%30.15 "Hg2 mi
2:50 PM55 °FLow clouds.5 mph88%30.15 "HgN/A
2:20 PM54 °FFog.3 mph88%30.18 "Hg3 mi
1:50 PM55 °FFog.5 mph82%30.18 "Hg2 mi
1:20 PM55 °FPartly sunny.3 mph82%30.18 "Hg4 mi
12:50 PM55 °FPartly sunny.3 mph82%30.18 "Hg6 mi
12:20 PM55 °FPartly sunny.3 mph82%30.18 "HgN/A
11:50 AM54 °FPartly sunny.3 mph88%30.18 "Hg6 mi
11:20 AM54 °FPartly sunny.3 mph88%30.18 "HgN/A
Weather by CustomWeather, © 2015

See weather overviewHow to use our weather pages